Year,Month,Day,Hour,Minute,Value (Times are PST for temperature in C)
2008,09,22,00,00,12.80
2008,09,22,00,01,12.80
2008,09,22,00,02,12.80
2008,09,22,00,03,12.80
2008,09,22,00,04,12.80
2008,09,22,00,05,12.80
2008,09,22,00,06,12.70
2008,09,22,00,07,12.70
2008,09,22,00,08,12.70
2008,09,22,00,09,12.70
2008,09,22,00,10,12.70
2008,09,22,00,11,12.70
2008,09,22,00,12,12.70
2008,09,22,00,13,12.70
2008,09,22,00,14,12.70
2008,09,22,00,15,12.70
2008,09,22,00,16,12.60
2008,09,22,00,17,12.60
2008,09,22,00,18,12.60
2008,09,22,00,19,12.60
2008,09,22,00,20,12.60
2008,09,22,00,21,12.60
2008,09,22,00,22,12.60
2008,09,22,00,23,12.50
2008,09,22,00,24,12.50
2008,09,22,00,25,12.50
2008,09,22,00,26,12.50
2008,09,22,00,27,12.50
2008,09,22,00,28,12.50
2008,09,22,00,29,12.50
2008,09,22,00,30,12.50
2008,09,22,00,31,12.50
2008,09,22,00,32,12.50
2008,09,22,00,33,12.50
2008,09,22,00,34,12.50
2008,09,22,00,35,12.50
2008,09,22,00,36,12.50
2008,09,22,00,37,12.50
2008,09,22,00,38,12.50
2008,09,22,00,39,12.50
2008,09,22,00,40,12.50
2008,09,22,00,41,12.50
2008,09,22,00,42,12.50
2008,09,22,00,43,12.50
2008,09,22,00,44,12.50
2008,09,22,00,45,12.50
2008,09,22,00,46,12.50
2008,09,22,00,47,12.50
2008,09,22,00,48,12.50
2008,09,22,00,49,12.50
2008,09,22,00,50,12.50
2008,09,22,00,51,12.50
2008,09,22,00,52,12.50
2008,09,22,00,53,12.50
2008,09,22,00,54,12.50
2008,09,22,00,55,12.50
2008,09,22,00,56,12.50
2008,09,22,00,57,12.50
2008,09,22,00,58,12.50
2008,09,22,00,59,12.50
2008,09,22,01,00,12.50
2008,09,22,01,01,12.50
2008,09,22,01,02,12.50
2008,09,22,01,03,12.50
2008,09,22,01,04,12.50
2008,09,22,01,05,12.50
2008,09,22,01,06,12.50
2008,09,22,01,07,12.50
2008,09,22,01,08,12.50
2008,09,22,01,09,12.40
2008,09,22,01,10,12.40
2008,09,22,01,11,12.40
2008,09,22,01,12,12.30
2008,09,22,01,13,12.30
2008,09,22,01,14,12.30
2008,09,22,01,15,12.20
2008,09,22,01,16,12.20
2008,09,22,01,17,12.20
2008,09,22,01,18,12.20
2008,09,22,01,19,12.10
2008,09,22,01,20,12.10
2008,09,22,01,21,12.10
2008,09,22,01,22,12.20
2008,09,22,01,23,12.20
2008,09,22,01,24,12.30
2008,09,22,01,25,12.30
2008,09,22,01,26,12.40
2008,09,22,01,27,12.40
2008,09,22,01,28,12.40
2008,09,22,01,29,12.50
2008,09,22,01,30,12.50
2008,09,22,01,31,12.50
2008,09,22,01,32,12.60
2008,09,22,01,33,12.60
2008,09,22,01,34,12.60
2008,09,22,01,35,12.60
2008,09,22,01,36,12.60
2008,09,22,01,37,12.60
2008,09,22,01,38,12.50
2008,09,22,01,39,12.50
2008,09,22,01,40,12.50
2008,09,22,01,41,12.50
2008,09,22,01,42,12.60
2008,09,22,01,43,12.60
2008,09,22,01,44,12.60
2008,09,22,01,45,12.60
2008,09,22,01,46,12.60
2008,09,22,01,47,12.50
2008,09,22,01,48,12.50
2008,09,22,01,49,12.50
2008,09,22,01,50,12.40
2008,09,22,01,51,12.40
2008,09,22,01,52,12.30
2008,09,22,01,53,12.20
2008,09,22,01,54,12.20
2008,09,22,01,55,12.10
2008,09,22,01,56,12.00
2008,09,22,01,57,12.00
2008,09,22,01,58,12.00
2008,09,22,01,59,11.90
2008,09,22,02,00,11.90
2008,09,22,02,01,11.90
2008,09,22,02,02,11.90
2008,09,22,02,03,12.00
2008,09,22,02,04,12.00
2008,09,22,02,05,12.00
2008,09,22,02,06,12.10
2008,09,22,02,07,12.10
2008,09,22,02,08,12.10
2008,09,22,02,09,12.20
2008,09,22,02,10,12.20
2008,09,22,02,11,12.20
2008,09,22,02,12,12.20
2008,09,22,02,13,12.20
2008,09,22,02,14,12.20
2008,09,22,02,15,12.20
2008,09,22,02,16,12.20
2008,09,22,02,17,12.20
2008,09,22,02,18,12.20
2008,09,22,02,19,12.20
2008,09,22,02,20,12.20
2008,09,22,02,21,12.20
2008,09,22,02,22,12.20
2008,09,22,02,23,12.20
2008,09,22,02,24,12.20
2008,09,22,02,25,12.10
2008,09,22,02,26,12.10
2008,09,22,02,27,12.00
2008,09,22,02,28,12.00
2008,09,22,02,29,11.90
2008,09,22,02,30,11.90
2008,09,22,02,31,11.90
2008,09,22,02,32,11.90
2008,09,22,02,33,11.90
2008,09,22,02,34,12.00
2008,09,22,02,35,12.00
2008,09,22,02,36,12.00
2008,09,22,02,37,12.10
2008,09,22,02,38,12.20
2008,09,22,02,39,12.20
2008,09,22,02,40,12.20
2008,09,22,02,41,12.20
2008,09,22,02,42,12.20
2008,09,22,02,43,12.30
2008,09,22,02,44,12.30
2008,09,22,02,45,12.30
2008,09,22,02,46,12.30
2008,09,22,02,47,12.30
2008,09,22,02,48,12.30
2008,09,22,02,49,12.30
2008,09,22,02,50,12.30
2008,09,22,02,51,12.30
2008,09,22,02,52,12.30
2008,09,22,02,53,12.30
2008,09,22,02,54,12.30
2008,09,22,02,55,12.30
2008,09,22,02,56,12.30
2008,09,22,02,57,12.30
2008,09,22,02,58,12.30
2008,09,22,02,59,12.30
2008,09,22,03,00,12.30
2008,09,22,03,01,12.30
2008,09,22,03,02,12.30
2008,09,22,03,03,12.30
2008,09,22,03,04,12.30
2008,09,22,03,05,12.30
2008,09,22,03,06,12.20
2008,09,22,03,07,12.20
2008,09,22,03,08,12.20
2008,09,22,03,09,12.20
2008,09,22,03,10,12.20
2008,09,22,03,11,12.20
2008,09,22,03,12,12.20
2008,09,22,03,13,12.20
2008,09,22,03,14,12.10
2008,09,22,03,15,12.10
2008,09,22,03,16,12.10
2008,09,22,03,17,12.10
2008,09,22,03,18,12.10
2008,09,22,03,19,12.00
2008,09,22,03,20,12.00
2008,09,22,03,21,12.00
2008,09,22,03,22,11.90
2008,09,22,03,23,11.90
2008,09,22,03,24,11.90
2008,09,22,03,25,11.80
2008,09,22,03,26,11.80
2008,09,22,03,27,11.80
2008,09,22,03,28,11.70
2008,09,22,03,29,11.70
2008,09,22,03,30,11.70
2008,09,22,03,31,11.60
2008,09,22,03,32,11.60
2008,09,22,03,33,11.60
2008,09,22,03,34,11.60
2008,09,22,03,35,11.50
2008,09,22,03,36,11.50
2008,09,22,03,37,11.40
2008,09,22,03,38,11.40
2008,09,22,03,39,11.30
2008,09,22,03,40,11.30
2008,09,22,03,41,11.30
2008,09,22,03,42,11.20
2008,09,22,03,43,11.20
2008,09,22,03,44,11.20
2008,09,22,03,45,11.20
2008,09,22,03,46,11.20
2008,09,22,03,47,11.10
2008,09,22,03,48,11.10
2008,09,22,03,49,11.10
2008,09,22,03,50,11.10
2008,09,22,03,51,11.00
2008,09,22,03,52,11.00
2008,09,22,03,53,11.00
2008,09,22,03,54,10.90
2008,09,22,03,55,10.90
2008,09,22,03,56,10.90
2008,09,22,03,57,10.90
2008,09,22,03,58,10.90
2008,09,22,03,59,10.90
2008,09,22,04,00,10.90
2008,09,22,04,01,10.90
2008,09,22,04,02,10.90
2008,09,22,04,03,10.80
2008,09,22,04,04,10.80
2008,09,22,04,05,10.80
2008,09,22,04,06,10.80
2008,09,22,04,07,10.80
2008,09,22,04,08,10.80
2008,09,22,04,09,10.80
2008,09,22,04,10,10.80
2008,09,22,04,11,10.80
2008,09,22,04,12,10.80
2008,09,22,04,13,10.80
2008,09,22,04,14,10.80
2008,09,22,04,15,10.80
2008,09,22,04,16,10.70
2008,09,22,04,17,10.70
2008,09,22,04,18,10.70
2008,09,22,04,19,10.70
2008,09,22,04,20,10.70
2008,09,22,04,21,10.70
2008,09,22,04,22,10.70
2008,09,22,04,23,10.60
2008,09,22,04,24,10.60
2008,09,22,04,25,10.60
2008,09,22,04,26,10.60
2008,09,22,04,27,10.60
2008,09,22,04,28,10.60
2008,09,22,04,29,10.60
2008,09,22,04,30,10.60
2008,09,22,04,31,10.60
2008,09,22,04,32,10.50
2008,09,22,04,33,10.50
2008,09,22,04,34,10.50
2008,09,22,04,35,10.50
2008,09,22,04,36,10.50
2008,09,22,04,37,10.50
2008,09,22,04,38,10.40
2008,09,22,04,39,10.40
2008,09,22,04,40,10.40
2008,09,22,04,41,10.40
2008,09,22,04,42,10.40
2008,09,22,04,43,10.40
2008,09,22,04,44,10.40
2008,09,22,04,45,10.40
2008,09,22,04,46,10.40
2008,09,22,04,47,10.40
2008,09,22,04,48,10.40
2008,09,22,04,49,10.30
2008,09,22,04,50,10.30
2008,09,22,04,51,10.30
2008,09,22,04,52,10.30
2008,09,22,04,53,10.30
2008,09,22,04,54,10.30
2008,09,22,04,55,10.30
2008,09,22,04,56,10.30
2008,09,22,04,57,10.30
2008,09,22,04,58,10.30
2008,09,22,04,59,10.30
2008,09,22,05,00,10.30
2008,09,22,05,01,10.30
2008,09,22,05,02,10.30
2008,09,22,05,03,10.30
2008,09,22,05,04,10.30
2008,09,22,05,05,10.30
2008,09,22,05,06,10.30
2008,09,22,05,07,10.30
2008,09,22,05,08,10.30
2008,09,22,05,09,10.30
2008,09,22,05,10,10.30
2008,09,22,05,11,10.30
2008,09,22,05,12,10.30
2008,09,22,05,13,10.30
2008,09,22,05,14,10.30
2008,09,22,05,15,10.30
2008,09,22,05,16,10.30
2008,09,22,05,17,10.30
2008,09,22,05,18,10.40
2008,09,22,05,19,10.40
2008,09,22,05,20,10.40
2008,09,22,05,21,10.40
2008,09,22,05,22,10.50
2008,09,22,05,23,10.50
2008,09,22,05,24,10.50
2008,09,22,05,25,10.60
2008,09,22,05,26,10.60
2008,09,22,05,27,10.60
2008,09,22,05,28,10.70
2008,09,22,05,29,10.70
2008,09,22,05,30,10.80
2008,09,22,05,31,10.80
2008,09,22,05,32,10.80
2008,09,22,05,33,10.80
2008,09,22,05,34,10.80
2008,09,22,05,35,10.80
2008,09,22,05,36,10.80
2008,09,22,05,37,10.80
2008,09,22,05,38,10.80
2008,09,22,05,39,10.80
2008,09,22,05,40,10.70
2008,09,22,05,41,10.70
2008,09,22,05,42,10.70
2008,09,22,05,43,10.70
2008,09,22,05,44,10.70
2008,09,22,05,45,10.80
2008,09,22,05,46,10.80
2008,09,22,05,47,10.80
2008,09,22,05,48,10.80
2008,09,22,05,49,10.80
2008,09,22,05,50,10.80
2008,09,22,05,51,10.80
2008,09,22,05,52,10.80
2008,09,22,05,53,10.80
2008,09,22,05,54,10.80
2008,09,22,05,55,10.80
2008,09,22,05,56,10.80
2008,09,22,05,57,10.80
2008,09,22,05,58,10.80
2008,09,22,05,59,10.80
2008,09,22,06,00,10.80
2008,09,22,06,01,10.80
2008,09,22,06,02,10.80
2008,09,22,06,03,10.80
2008,09,22,06,04,10.80
2008,09,22,06,05,10.80
2008,09,22,06,06,10.70
2008,09,22,06,07,10.70
2008,09,22,06,08,10.70
2008,09,22,06,09,10.80
2008,09,22,06,10,10.80
2008,09,22,06,11,10.80
2008,09,22,06,12,10.80
2008,09,22,06,13,10.80
2008,09,22,06,14,10.80
2008,09,22,06,15,10.80
2008,09,22,06,16,10.80
2008,09,22,06,17,10.80
2008,09,22,06,18,10.70
2008,09,22,06,19,10.70
2008,09,22,06,20,10.70
2008,09,22,06,21,10.60
2008,09,22,06,22,10.60
2008,09,22,06,23,10.60
2008,09,22,06,24,10.50
2008,09,22,06,25,10.50
2008,09,22,06,26,10.40
2008,09,22,06,27,10.40
2008,09,22,06,28,10.40
2008,09,22,06,29,10.40
2008,09,22,06,30,10.30
2008,09,22,06,31,10.30
2008,09,22,06,32,10.30
2008,09,22,06,33,10.30
2008,09,22,06,34,10.20
2008,09,22,06,35,10.20
2008,09,22,06,36,10.20
2008,09,22,06,37,10.20
2008,09,22,06,38,10.20
2008,09,22,06,39,10.10
2008,09,22,06,40,10.10
2008,09,22,06,41,10.10
2008,09,22,06,42,10.10
2008,09,22,06,43,10.10
2008,09,22,06,44,10.10
2008,09,22,06,45,10.10
2008,09,22,06,46,10.10
2008,09,22,06,47,10.00
2008,09,22,06,48,10.00
2008,09,22,06,49,9.90
2008,09,22,06,50,9.90
2008,09,22,06,51,9.90
2008,09,22,06,52,9.80
2008,09,22,06,53,9.80
2008,09,22,06,54,9.80
2008,09,22,06,55,9.70
2008,09,22,06,56,9.70
2008,09,22,06,57,9.70
2008,09,22,06,58,9.70
2008,09,22,06,59,9.70
2008,09,22,07,00,9.70
2008,09,22,07,01,9.60
2008,09,22,07,02,9.60
2008,09,22,07,03,9.60
2008,09,22,07,04,9.60
2008,09,22,07,05,9.60
2008,09,22,07,06,9.60
2008,09,22,07,07,9.60
2008,09,22,07,08,9.60
2008,09,22,07,09,9.60
2008,09,22,07,10,9.60
2008,09,22,07,11,9.60
2008,09,22,07,12,9.70
2008,09,22,07,13,9.70
2008,09,22,07,14,9.70
2008,09,22,07,15,9.60
2008,09,22,07,16,9.60
2008,09,22,07,17,9.60
2008,09,22,07,18,9.60
2008,09,22,07,19,9.60
2008,09,22,07,20,9.50
2008,09,22,07,21,9.50
2008,09,22,07,22,9.60
2008,09,22,07,23,9.60
2008,09,22,07,24,9.60
2008,09,22,07,25,9.60
2008,09,22,07,26,9.60
2008,09,22,07,27,9.70
2008,09,22,07,28,9.70
2008,09,22,07,29,9.70
2008,09,22,07,30,9.70
2008,09,22,07,31,9.70
2008,09,22,07,32,9.60
2008,09,22,07,33,9.60
2008,09,22,07,34,9.60
2008,09,22,07,35,9.50
2008,09,22,07,36,9.50
2008,09,22,07,37,9.40
2008,09,22,07,38,9.40
2008,09,22,07,39,9.40
2008,09,22,07,40,9.40
2008,09,22,07,41,9.30
2008,09,22,07,42,9.30
2008,09,22,07,43,9.30
2008,09,22,07,44,9.30
2008,09,22,07,45,9.30
2008,09,22,07,46,9.30
2008,09,22,07,47,9.30
2008,09,22,07,48,9.30
2008,09,22,07,49,9.20
2008,09,22,07,50,9.20
2008,09,22,07,51,9.20
2008,09,22,07,52,9.30
2008,09,22,07,53,9.30
2008,09,22,07,54,9.30
2008,09,22,07,55,9.40
2008,09,22,07,56,9.40
2008,09,22,07,57,9.50
2008,09,22,07,58,9.50
2008,09,22,07,59,9.60
2008,09,22,08,00,9.60
2008,09,22,08,01,9.70
2008,09,22,08,02,9.70
2008,09,22,08,03,9.80
2008,09,22,08,04,9.80
2008,09,22,08,05,9.90
2008,09,22,08,06,10.00
2008,09,22,08,07,10.10
2008,09,22,08,08,10.20
2008,09,22,08,09,10.20
2008,09,22,08,10,10.20
2008,09,22,08,11,10.30
2008,09,22,08,12,10.30
2008,09,22,08,13,10.30
2008,09,22,08,14,10.40
2008,09,22,08,15,10.40
2008,09,22,08,16,10.40
2008,09,22,08,17,10.40
2008,09,22,08,18,10.40
2008,09,22,08,19,10.40
2008,09,22,08,20,10.40
2008,09,22,08,21,10.40
2008,09,22,08,22,10.40
2008,09,22,08,23,10.40
2008,09,22,08,24,10.50
2008,09,22,08,25,10.50
2008,09,22,08,26,10.50
2008,09,22,08,27,10.50
2008,09,22,08,28,10.50
2008,09,22,08,29,10.60
2008,09,22,08,30,10.60
2008,09,22,08,31,10.60
2008,09,22,08,32,10.70
2008,09,22,08,33,10.80
2008,09,22,08,34,10.80
2008,09,22,08,35,10.80
2008,09,22,08,36,10.90
2008,09,22,08,37,11.00
2008,09,22,08,38,11.10
2008,09,22,08,39,11.20
2008,09,22,08,40,11.30
2008,09,22,08,41,11.40
2008,09,22,08,42,11.50
2008,09,22,08,43,11.50
2008,09,22,08,44,11.60
2008,09,22,08,45,11.70
2008,09,22,08,46,11.80
2008,09,22,08,47,11.90
2008,09,22,08,48,12.00
2008,09,22,08,49,12.00
2008,09,22,08,50,12.10
2008,09,22,08,51,12.10
2008,09,22,08,52,12.20
2008,09,22,08,53,12.20
2008,09,22,08,54,12.20
2008,09,22,08,55,12.20
2008,09,22,08,56,12.20
2008,09,22,08,57,12.30
2008,09,22,08,58,12.30
2008,09,22,08,59,12.30
2008,09,22,09,00,12.30
2008,09,22,09,01,12.30
2008,09,22,09,02,12.30
2008,09,22,09,03,12.30
2008,09,22,09,04,12.30
2008,09,22,09,05,12.30
2008,09,22,09,06,12.30
2008,09,22,09,07,12.30
2008,09,22,09,08,12.30
2008,09,22,09,09,12.30
2008,09,22,09,10,12.30
2008,09,22,09,11,12.30
2008,09,22,09,12,12.30
2008,09,22,09,13,12.30
2008,09,22,09,14,12.30
2008,09,22,09,15,12.40
2008,09,22,09,16,12.40
2008,09,22,09,17,12.40
2008,09,22,09,18,12.40
2008,09,22,09,19,12.50
2008,09,22,09,20,12.50
2008,09,22,09,21,12.50
2008,09,22,09,22,12.50
2008,09,22,09,23,12.50
2008,09,22,09,24,12.50
2008,09,22,09,25,12.50
2008,09,22,09,26,12.50
2008,09,22,09,27,12.50
2008,09,22,09,28,12.50
2008,09,22,09,29,12.50
2008,09,22,09,30,12.50
2008,09,22,09,31,12.50
2008,09,22,09,32,12.40
2008,09,22,09,33,12.40
2008,09,22,09,34,12.40
2008,09,22,09,35,12.40
2008,09,22,09,36,12.40
2008,09,22,09,37,12.40
2008,09,22,09,38,12.40
2008,09,22,09,39,12.40
2008,09,22,09,40,12.40
2008,09,22,09,41,12.40
2008,09,22,09,42,12.40
2008,09,22,09,43,12.40
2008,09,22,09,44,12.40
2008,09,22,09,45,12.50
2008,09,22,09,46,12.50
2008,09,22,09,47,12.50
2008,09,22,09,48,12.50
2008,09,22,09,49,12.50
2008,09,22,09,50,12.50
2008,09,22,09,51,12.40
2008,09,22,09,52,12.50
2008,09,22,09,53,12.50
2008,09,22,09,54,12.50
2008,09,22,09,55,12.60
2008,09,22,09,56,12.60
2008,09,22,09,57,12.60
2008,09,22,09,58,12.60
2008,09,22,09,59,12.70
2008,09,22,10,00,12.70
2008,09,22,10,01,12.70
2008,09,22,10,02,12.70
2008,09,22,10,03,12.70
2008,09,22,10,04,12.80
2008,09,22,10,05,12.80
2008,09,22,10,06,12.80
2008,09,22,10,07,12.90
2008,09,22,10,08,12.90
2008,09,22,10,09,13.00
2008,09,22,10,10,13.00
2008,09,22,10,11,13.00
2008,09,22,10,12,13.00
2008,09,22,10,13,13.00
2008,09,22,10,14,13.10
2008,09,22,10,15,13.10
2008,09,22,10,16,13.20
2008,09,22,10,17,13.20
2008,09,22,10,18,13.30
2008,09,22,10,19,13.40
2008,09,22,10,20,13.40
2008,09,22,10,21,13.40
2008,09,22,10,22,13.50
2008,09,22,10,23,13.60
2008,09,22,10,24,13.60
2008,09,22,10,25,13.70
2008,09,22,10,26,13.70
2008,09,22,10,27,13.80
2008,09,22,10,28,13.80
2008,09,22,10,29,13.80
2008,09,22,10,30,13.80
2008,09,22,10,31,13.70
2008,09,22,10,32,13.70
2008,09,22,10,33,13.70
2008,09,22,10,34,13.70
2008,09,22,10,35,13.70
2008,09,22,10,36,13.70
2008,09,22,10,37,13.70
2008,09,22,10,38,13.70
2008,09,22,10,39,13.70
2008,09,22,10,40,13.70
2008,09,22,10,41,13.80
2008,09,22,10,42,13.90
2008,09,22,10,43,13.90
2008,09,22,10,44,14.00
2008,09,22,10,45,14.00
2008,09,22,10,46,14.00
2008,09,22,10,47,14.10
2008,09,22,10,48,14.10
2008,09,22,10,49,14.20
2008,09,22,10,50,14.20
2008,09,22,10,51,14.30
2008,09,22,10,52,14.30
2008,09,22,10,53,14.30
2008,09,22,10,54,14.30
2008,09,22,10,55,14.30
2008,09,22,10,56,14.30
2008,09,22,10,57,14.30
2008,09,22,10,58,14.30
2008,09,22,10,59,14.30
2008,09,22,11,00,14.30
2008,09,22,11,01,14.30
2008,09,22,11,02,14.30
2008,09,22,11,03,14.30
2008,09,22,11,04,14.30
2008,09,22,11,05,14.30
2008,09,22,11,06,14.30
2008,09,22,11,07,14.40
2008,09,22,11,08,14.40
2008,09,22,11,09,14.50
2008,09,22,11,10,14.50
2008,09,22,11,11,14.60
2008,09,22,11,12,14.60
2008,09,22,11,13,14.60
2008,09,22,11,14,14.60
2008,09,22,11,15,14.60
2008,09,22,11,16,14.60
2008,09,22,11,17,14.60
2008,09,22,11,18,14.60
2008,09,22,11,19,14.60
2008,09,22,11,20,14.70
2008,09,22,11,21,14.80
2008,09,22,11,22,14.90
2008,09,22,11,23,15.00
2008,09,22,11,24,15.00
2008,09,22,11,25,15.00
2008,09,22,11,26,15.10
2008,09,22,11,27,15.00
2008,09,22,11,28,15.00
2008,09,22,11,29,15.00
2008,09,22,11,30,15.00
2008,09,22,11,31,15.00
2008,09,22,11,32,15.00
2008,09,22,11,33,15.00
2008,09,22,11,34,15.00
2008,09,22,11,35,15.00
2008,09,22,11,36,15.00
2008,09,22,11,37,15.00
2008,09,22,11,38,15.00
2008,09,22,11,39,15.00
2008,09,22,11,40,14.90
2008,09,22,11,41,14.80
2008,09,22,11,42,14.80
2008,09,22,11,43,14.80
2008,09,22,11,44,14.80
2008,09,22,11,45,14.80
2008,09,22,11,46,14.80
2008,09,22,11,47,14.80
2008,09,22,11,48,14.80
2008,09,22,11,49,14.90
2008,09,22,11,50,15.00
2008,09,22,11,51,15.00
2008,09,22,11,52,15.00
2008,09,22,11,53,15.00
2008,09,22,11,54,15.00
2008,09,22,11,55,15.10
2008,09,22,11,56,15.00
2008,09,22,11,57,15.00
2008,09,22,11,58,15.00
2008,09,22,11,59,15.10
2008,09,22,12,00,15.30
2008,09,22,12,01,15.30
2008,09,22,12,02,15.40
2008,09,22,12,03,15.50
2008,09,22,12,04,15.60
2008,09,22,12,05,15.50
2008,09,22,12,06,15.30
2008,09,22,12,07,15.10
2008,09,22,12,08,15.00
2008,09,22,12,09,14.90
2008,09,22,12,10,14.80
2008,09,22,12,11,14.70
2008,09,22,12,12,14.60
2008,09,22,12,18,14.20
2008,09,22,12,19,14.20
2008,09,22,12,20,14.10
2008,09,22,12,21,14.10
2008,09,22,12,22,14.20
2008,09,22,12,23,14.30
2008,09,22,12,24,14.30
2008,09,22,12,25,14.40
2008,09,22,12,26,14.40
2008,09,22,12,27,14.50
2008,09,22,12,28,14.60
2008,09,22,12,29,14.70
2008,09,22,12,30,14.70
2008,09,22,12,31,14.80
2008,09,22,12,32,14.80
2008,09,22,12,33,14.80
2008,09,22,12,34,14.90
2008,09,22,12,35,15.00
2008,09,22,12,36,15.00
2008,09,22,12,37,15.00
2008,09,22,12,38,15.00
2008,09,22,12,39,15.10
2008,09,22,12,40,15.20
2008,09,22,12,41,15.20
2008,09,22,12,42,15.20
2008,09,22,12,43,15.20
2008,09,22,12,44,15.10
2008,09,22,12,45,15.10
2008,09,22,12,46,15.00
2008,09,22,12,47,15.00
2008,09,22,12,48,15.00
2008,09,22,12,49,15.00
2008,09,22,12,50,15.00
2008,09,22,12,51,14.90
2008,09,22,12,52,14.90
2008,09,22,12,53,14.90
2008,09,22,12,54,14.90
2008,09,22,12,55,14.90
2008,09,22,12,56,14.90
2008,09,22,12,57,14.90
2008,09,22,12,58,14.90
2008,09,22,12,59,14.90
2008,09,22,13,00,14.90
2008,09,22,13,01,15.00
2008,09,22,13,02,15.00
2008,09,22,13,03,15.00
2008,09,22,13,04,15.00
2008,09,22,13,05,15.00
2008,09,22,13,06,15.00
2008,09,22,13,07,15.00
2008,09,22,13,08,15.00
2008,09,22,13,09,15.00
2008,09,22,13,10,15.00
2008,09,22,13,11,15.00
2008,09,22,13,12,15.00
2008,09,22,13,13,14.80
2008,09,22,13,14,14.70
2008,09,22,13,15,14.60
2008,09,22,13,16,14.60
2008,09,22,13,17,14.50
2008,09,22,13,18,14.40
2008,09,22,13,19,14.40
2008,09,22,13,20,14.40
2008,09,22,13,21,14.30
2008,09,22,13,22,14.30
2008,09,22,13,23,14.20
2008,09,22,13,24,14.10
2008,09,22,13,25,14.00
2008,09,22,13,26,13.90
2008,09,22,13,27,13.90
2008,09,22,13,28,13.90
2008,09,22,13,29,13.90
2008,09,22,13,30,13.80
2008,09,22,13,31,13.80
2008,09,22,13,32,13.80
2008,09,22,13,33,13.80
2008,09,22,13,34,13.70
2008,09,22,13,35,13.70
2008,09,22,13,36,13.70
2008,09,22,13,37,13.70
2008,09,22,13,38,13.80
2008,09,22,13,39,13.80
2008,09,22,13,40,13.80
2008,09,22,13,41,13.80
2008,09,22,13,42,13.80
2008,09,22,13,43,13.80
2008,09,22,13,44,13.80
2008,09,22,13,45,13.80
2008,09,22,13,46,13.80
2008,09,22,13,47,13.80
2008,09,22,13,48,13.80
2008,09,22,13,49,13.70
2008,09,22,13,50,13.70
2008,09,22,13,51,13.80
2008,09,22,13,52,13.80
2008,09,22,13,53,13.90
2008,09,22,13,54,14.00
2008,09,22,13,55,14.10
2008,09,22,13,56,14.20
2008,09,22,13,57,14.30
2008,09,22,13,58,14.40
2008,09,22,13,59,14.50
2008,09,22,14,00,14.60
2008,09,22,14,01,14.70
2008,09,22,14,02,14.80
2008,09,22,14,03,14.80
2008,09,22,14,04,14.80
2008,09,22,14,05,14.70
2008,09,22,14,06,14.60
2008,09,22,14,07,14.50
2008,09,22,14,08,14.50
2008,09,22,14,09,14.60
2008,09,22,14,10,14.80
2008,09,22,14,11,14.90
2008,09,22,14,12,15.00
2008,09,22,14,13,15.00
2008,09,22,14,14,15.00
2008,09,22,14,15,15.00
2008,09,22,14,16,15.10
2008,09,22,14,17,15.20
2008,09,22,14,18,15.30
2008,09,22,14,19,15.30
2008,09,22,14,20,15.20
2008,09,22,14,21,15.10
2008,09,22,14,22,15.00
2008,09,22,14,23,15.00
2008,09,22,14,24,15.00
2008,09,22,14,25,15.00
2008,09,22,14,26,15.00
2008,09,22,14,27,14.80
2008,09,22,14,28,14.70
2008,09,22,14,29,14.70
2008,09,22,14,30,14.60
2008,09,22,14,31,14.50
2008,09,22,14,32,14.40
2008,09,22,14,33,14.30
2008,09,22,14,34,14.30
2008,09,22,14,35,14.20
2008,09,22,14,36,14.20
2008,09,22,14,37,14.10
2008,09,22,14,38,14.10
2008,09,22,14,39,14.00
2008,09,22,14,40,14.00
2008,09,22,14,41,14.10
2008,09,22,14,42,14.10
2008,09,22,14,43,14.20
2008,09,22,14,44,14.30
2008,09,22,14,45,14.30
2008,09,22,14,46,14.30
2008,09,22,14,47,14.30
2008,09,22,14,48,14.20
2008,09,22,14,49,14.20
2008,09,22,14,50,14.10
2008,09,22,14,51,14.10
2008,09,22,14,52,14.10
2008,09,22,14,53,14.00
2008,09,22,14,54,14.10
2008,09,22,14,55,14.10
2008,09,22,14,56,14.10
2008,09,22,14,57,14.20
2008,09,22,14,58,14.20
2008,09,22,14,59,14.30
2008,09,22,15,00,14.40
2008,09,22,15,01,14.50
2008,09,22,15,02,14.60
2008,09,22,15,07,14.80
2008,09,22,15,08,14.80
2008,09,22,15,09,14.80
2008,09,22,15,10,14.80
2008,09,22,15,11,14.70
2008,09,22,15,12,14.60
2008,09,22,15,13,14.60
2008,09,22,15,14,14.60
2008,09,22,15,15,14.60
2008,09,22,15,16,14.60
2008,09,22,15,17,14.60
2008,09,22,15,18,14.50
2008,09,22,15,19,14.40
2008,09,22,15,20,14.40
2008,09,22,15,21,14.40
2008,09,22,15,22,14.40
2008,09,22,15,23,14.30
2008,09,22,15,24,14.30
2008,09,22,15,25,14.40
2008,09,22,15,26,14.40
2008,09,22,15,27,14.40
2008,09,22,15,28,14.50
2008,09,22,15,29,14.60
2008,09,22,15,30,14.60
2008,09,22,15,31,14.70
2008,09,22,15,32,14.80
2008,09,22,15,33,14.90
2008,09,22,15,34,14.90
2008,09,22,15,35,15.00
2008,09,22,15,36,15.00
2008,09,22,15,37,15.00
2008,09,22,15,38,15.00
2008,09,22,15,39,15.00
2008,09,22,15,40,15.10
2008,09,22,15,41,15.10
2008,09,22,15,42,15.00
2008,09,22,15,43,15.00
2008,09,22,15,44,15.00
2008,09,22,15,45,15.10
2008,09,22,15,46,15.20
2008,09,22,15,47,15.30
2008,09,22,15,48,15.40
2008,09,22,15,49,15.40
2008,09,22,15,50,15.40
2008,09,22,15,51,15.40
2008,09,22,15,52,15.40
2008,09,22,15,53,15.30
2008,09,22,15,54,15.20
2008,09,22,15,55,15.10
2008,09,22,15,56,15.00
2008,09,22,15,57,14.90
2008,09,22,15,58,14.80
2008,09,22,15,59,14.80
2008,09,22,16,00,14.80
2008,09,22,16,01,14.70
2008,09,22,16,02,14.70
2008,09,22,16,03,14.70
2008,09,22,16,04,14.70
2008,09,22,16,05,14.70
2008,09,22,16,06,14.60
2008,09,22,16,07,14.70
2008,09,22,16,08,14.70
2008,09,22,16,09,14.70
2008,09,22,16,10,14.70
2008,09,22,16,11,14.80
2008,09,22,16,12,14.80
2008,09,22,16,13,14.80
2008,09,22,16,14,14.90
2008,09,22,16,15,15.00
2008,09,22,16,16,15.00
2008,09,22,16,17,14.90
2008,09,22,16,18,14.90
2008,09,22,16,19,14.80
2008,09,22,16,20,14.80
2008,09,22,16,21,14.70
2008,09,22,16,22,14.60
2008,09,22,16,23,14.60
2008,09,22,16,24,14.60
2008,09,22,16,25,14.60
2008,09,22,16,26,14.50
2008,09,22,16,27,14.50
2008,09,22,16,28,14.40
2008,09,22,16,29,14.40
2008,09,22,16,30,14.50
2008,09,22,16,31,14.50
2008,09,22,16,32,14.50
2008,09,22,16,33,14.50
2008,09,22,16,34,14.50
2008,09,22,16,35,14.40
2008,09,22,16,36,14.40
2008,09,22,16,37,14.30
2008,09,22,16,38,14.30
2008,09,22,16,39,14.30
2008,09,22,16,40,14.30
2008,09,22,16,41,14.30
2008,09,22,16,42,14.30
2008,09,22,16,43,14.30
2008,09,22,16,44,14.30
2008,09,22,16,45,14.30
2008,09,22,16,46,14.30
2008,09,22,16,47,14.30
2008,09,22,16,48,14.40
2008,09,22,16,49,14.40
2008,09,22,16,50,14.40
2008,09,22,16,51,14.50
2008,09,22,16,52,14.60
2008,09,22,16,53,14.60
2008,09,22,16,54,14.70
2008,09,22,16,55,14.70
2008,09,22,16,56,14.80
2008,09,22,16,57,15.00
2008,09,22,16,58,15.00
2008,09,22,16,59,15.00
2008,09,22,17,00,15.00
2008,09,22,17,01,15.00
2008,09,22,17,02,15.00
2008,09,22,17,03,15.00
2008,09,22,17,04,15.00
2008,09,22,17,05,15.00
2008,09,22,17,06,15.00
2008,09,22,17,07,15.00
2008,09,22,17,08,14.90
2008,09,22,17,09,14.90
2008,09,22,17,10,14.80
2008,09,22,17,11,14.80
2008,09,22,17,12,14.80
2008,09,22,17,13,14.80
2008,09,22,17,14,14.80
2008,09,22,17,15,14.90
2008,09,22,17,16,14.90
2008,09,22,17,17,15.00
2008,09,22,17,18,15.00
2008,09,22,17,19,15.00
2008,09,22,17,20,15.00
2008,09,22,17,21,15.00
2008,09,22,17,22,15.00
2008,09,22,17,23,14.90
2008,09,22,17,24,14.80
2008,09,22,17,25,14.70
2008,09,22,17,26,14.60
2008,09,22,17,27,14.60
2008,09,22,17,28,14.50
2008,09,22,17,29,14.50
2008,09,22,17,30,14.40
2008,09,22,17,31,14.50